Content
SEND FEEDBACK

Daily
Averages
Monthly
Summary
Canada

HAMILTON, ONTARIO


Home > North America > Canada > Ontario
Elevation: 776 feet     Latitude: 43 10N     Longitude: 079 55W

WEATHER
 
SELECT A DAY
Number of Records: 169,852;   Date Range: 1/1/95 - 9/29/14
 
SHARE

PRINT THIS DATA

[ ← Previous Day ]
WEATHER ALMANAC - FEBRUARY 3, 2013
[ Next Day → ]
[ °C ]   °F
Weather ElementAverageHighLow
Temperature12.1 °F21.2 °F (2:00 pm)-0.4 °F (5:00 am)
Dewpoint5.9 °F14 °F (7:00 pm)-4 °F (5:00 am)
Humidity76.5 %92 % (2:00 am)42 % (1:00 pm)
Barometer29.90 in30.00 in (1:00 am)29.83 in (2:00 pm)
Wind Speed5.5 mph12.7 mph (11:00 pm)
Wind Gust20.7 mph (8:00 pm)
Weather ElementAverage
Visibility13 mi
Wind DirectionSSW (199.3 °)

Weather ElementTotal
Precipitation---
Heating Degree Days54.6 (Base 65)
Averaged from 28 records on February 3, 2013
WEATHER CONDITIONS BREAKOUT
WIND DIRECTION BREAKOUT
WEATHER BY HOUR - FEBRUARY 3, 2013
[ °C ]   °F
Local TimeTemperatureDewpointHumidityBarometerVisibilityWind DirectionWind SpeedGust SpeedPrecipitationEventsConditions
1:00 AM5.0 °F2.0 °F82 %30.00 in15.0 miWest (280°)4.6 mphPartly Cloudy
1:00 AM5.0 °F1.4 °F85 %29.99 in15.0 miWNW (290°)3.5 mphPartly Cloudy
2:00 AM6.8 °F5.0 °F92 %29.99 in15.0 miNW (320°)5.8 mphPartly Cloudy
3:00 AM6.8 °F3.2 °F85 %29.98 in15.0 miNNW (330°)6.9 mphPartly Cloudy
4:00 AM3.2 °F-0.4 °F85 %29.96 in15.0 miNW (320°)3.5 mphPartly Cloudy
5:00 AM-0.4 °F-4.0 °F85 %29.95 in15.0 miWNW (300°)3.5 mphScattered Clouds
6:00 AM6.8 °F3.2 °F85 %29.93 in15.0 miNorth (10°)3.5 mphMostly Cloudy
7:00 AM3.2 °F-0.4 °F85 %29.93 in15.0 miWNW (290°)2.3 mphMostly Cloudy
7:00 AM4.0 °F0.0 °F77 %29.93 in15.0 miWest (270°)2.3 mphPartly Cloudy
8:00 AM1.4 °F-2.2 °F85 %29.93 in15.0 miCalmMostly Cloudy
9:00 AM6.8 °F3.2 °F85 %29.91 in15.0 miCalmMostly Cloudy
10:00 AM12.2 °F8.6 °F85 %29.90 in15.0 miNW (320°)2.3 mphMostly Cloudy
11:00 AM15.8 °F10.4 °F79 %29.89 in15.0 miCalmMostly Cloudy
12:00 PM17.6 °F5.0 °F58 %29.87 in15.0 miCalmOvercast
1:00 PM19.4 °F5.0 °F54 %29.86 in15.0 miCalmMostly Cloudy
1:00 PM19.0 °F6.0 °F42 %29.86 in15.0 miCalmMostly Cloudy
2:00 PM21.2 °F5.0 °F50 %29.83 in15.0 miCalmOvercast
3:00 PM19.4 °F6.8 °F58 %29.83 in12.0 miSW (230°)6.9 mphMostly Cloudy
4:00 PM19.4 °F8.6 °F63 %29.84 in15.0 miWest (270°)8.1 mphMostly Cloudy
5:00 PM17.6 °F8.6 °F68 %29.85 in12.0 miSW (230°)10.4 mphSnowLight Snow Showers
6:00 PM17.6 °F12.2 °F79 %29.86 in12.0 miWSW (240°)10.4 mphSnowLight Snow Showers
6:30 PM17.6 °F12.2 °F79 %29.86 in2.5 miSW (230°)10.4 mphSnowLight Snow Showers
7:00 PM17.0 °F13.0 °F80 %29.87 in3.0 miWSW (240°)11.5 mphSnowLight Snow Showers
7:00 PM17.6 °F14.0 °F86 %29.87 in3.0 miWSW (240°)11.5 mphSnowLight Snow Showers
8:00 PM15.8 °F10.4 °F79 %29.89 in8.0 miWest (260°)11.5 mph20.7 mphSnowLight Snow Showers
9:00 PM14.0 °F8.6 °F79 %29.89 in12.0 miSW (230°)10.4 mphMostly Cloudy
10:00 PM14.0 °F10.4 °F86 %29.89 in15.0 miWSW (240°)11.5 mphMostly Cloudy
11:00 PM14.0 °F10.4 °F86 %29.90 in15.0 miWSW (240°)12.7 mphScattered Clouds
Hourly data recorded from CYHM, located miles away from Hamilton, Ontario







STORIES FROM OUR PARTNERS